Regional Weather Roundup
Issued by NWS

Home | Current Version | Previous Version | Text Only | Print | Product List | Glossary Off
Versions: 1 2 3 4 5 6 7 8 9 10 11 12 13 14 15 16 17 18 19 20 21 22 23 24 25 26 27 28 29 30 31 32 33 34 35 36 37 38 39 40 41 42 43 44 45 46 47 48 49 50

000
ASUS43 KOAX 030102
RWRNE

WEATHER ROUNDUP FOR NEBRASKA
NATIONAL WEATHER SERVICE OMAHA NE
800 PM CDT MON MAY 02 2016

NOTES: SATELLITE DATA IS BEING USED TO AUGMENT CLOUD COVER ABOVE
       12000 FEET.
       "FAIR" INDICATES FEW OR NO CLOUDS BELOW 12,000 FEET WITH NO
       SIGNIFICANT WEATHER AND/OR OBSTRUCTIONS TO VISIBILITY.

  * THESE STATIONS DO NOT REPORT WEATHER SUCH AS RAIN...SNOW OR FOG.

NEZ001>004-019>022-054>056-030200-
NEBRASKA PANHANDLE

CITY           SKY/WX    TMP DP  RH WIND       PRES   REMARKS
SCOTTSBLUFF    CLOUDY    61  31  32 N13       30.01S
ALLIANCE       CLOUDY    54  37  52 E7        30.00F
CHADRON        PTCLDY    59  36  42 NE15      30.01S
KIMBALL        CLEAR     57  26  31 W15       30.06S
SIDNEY         CLOUDY    54  32  43 CALM      30.04F
$$

NEZ057>060-069>072-079>082-030200-
SOUTHWEST NEBRASKA

CITY           SKY/WX    TMP DP  RH WIND       PRES   REMARKS
NORTH PLATTE   PTCLDY    58  30  34 E3        30.02F
IMPERIAL       MOCLDY    57  37  47 S6        30.04F
LEXINGTON      PTCLDY    55  42  60 E7        30.04R
MCCOOK         CLOUDY    58  36  43 W8        30.03F
$$

NEZ005>010-023>029-035>040-094-030200-
NORTH CENTRAL NEBRASKA

CITY           SKY/WX    TMP DP  RH WIND       PRES   REMARKS
VALENTINE      CLOUDY    54  40  59 NE10      30.01R
AINSWORTH      CLOUDY    55  41  59 NE6       30.01S
BROKEN BOW     PTCLDY    57  42  57 E5        30.02F
ORD            MOCLDY    58  39  49 S6        30.02S
$$

NEZ041-046>049-061>064-073>077-083>087-030200-
SOUTH CENTRAL NEBRASKA

CITY           SKY/WX    TMP DP  RH WIND       PRES   REMARKS
GRAND ISLAND   PTCLDY    57  38  48 SE3       30.05F
AURORA         MOCLDY    57  41  55 CALM      30.05S
HASTINGS       PTCLDY    56  39  53 E3        30.05F
HEBRON         PTCLDY    57  42  58 CALM      30.06S
HOLDREGE       PTCLDY    55  43  63 SE5       30.04F
KEARNEY *      MOCLDY    55  41  58 SE6       30.05S
YORK           CLOUDY    57  37  47 CALM      30.05F
$$

NEZ011>018-030>034-042>045-030200-
NORTHEAST NEBRASKA

CITY           SKY/WX    TMP DP  RH WIND       PRES   REMARKS
NORFOLK        PTCLDY    57  42  57 S3        30.02F
ALBION         PTCLDY    56  41  56 S3        30.03S
BLAIR          CLEAR     60  39  45 CALM      30.04S
COLUMBUS *     CLOUDY    57  37  47 S7        30.05F
FREMONT        PTCLDY    58  39  48 CALM      30.05S
TEKAMAH        PTCLDY    60  45  57 S5        30.03F
$$

NEZ050>053-065>068-078-088>093-030200-
SOUTHEAST NEBRASKA

CITY           SKY/WX    TMP DP  RH WIND       PRES   REMARKS
LINCOLN        PTCLDY    61  36  39 W3        30.06S
OMAHA EPPLEY   PTCLDY    61  38  42 CALM      30.04S
BEATRICE       CLOUDY    60  38  43 CALM      30.05S
FALLS CITY     PTCLDY    59  41  51 CALM      30.05S
NEBRASKA CITY  CLEAR     59  37  42 CALM      30.05S
$$

NEZ044-045-051>053-067-030200-
OMAHA AREA

CITY           SKY/WX    TMP DP  RH WIND       PRES   REMARKS
OMAHA EPPLEY   PTCLDY    61  38  42 CALM      30.04S
BLAIR          CLEAR     60  39  45 CALM      30.04S
FREMONT        PTCLDY    58  39  48 CALM      30.05S
OFFUTT AFB     CLEAR     61  37  41 SW2       30.04S
WAHOO          FAIR      61  40  46 CALM      30.05S
$$




USA.gov is the U.S. government's official web portal to all federal, state and local government web resources and services.